Hourly Weather Laszkar Gah

Today, 3 July, Friday

Time Temperature Precipitation Wind Pressure Humidity
00:00 +35°C° 0 mm 6 mps 686 mmHg 10%
01:00 +34°C° 0 mm 6 mps 686 mmHg 11%
02:00 +32°C° 0 mm 5 mps 685 mmHg 12%
03:00 +30°C° 0 mm 4 mps 685 mmHg 12%
04:00 +29°C° 0 mm 3 mps 685 mmHg 13%
05:00 +32°C° 0 mm 4 mps 686 mmHg 12%
06:00 +34°C° 0 mm 5 mps 687 mmHg 11%
07:00 +36°C° 0 mm 5 mps 687 mmHg 9%
08:00 +40°C° 0 mm 5 mps 688 mmHg 8%
09:00 +42°C° 0 mm 5 mps 688 mmHg 6%
10:00 +46°C° 0 mm 5 mps 688 mmHg 5%
11:00 +47°C° 0 mm 5 mps 688 mmHg 5%
12:00 +48°C° 0 mm 4 mps 688 mmHg 4%
13:00 +49°C° 0 mm 4 mps 687 mmHg 4%
14:00 +49°C° 0 mm 4 mps 686 mmHg 4%
15:00 +49°C° 0 mm 4 mps 686 mmHg 4%
16:00 +49°C° 0 mm 4 mps 685 mmHg 4%
17:00 +47°C° 0 mm 4 mps 685 mmHg 5%
18:00 +44°C° 0 mm 4 mps 685 mmHg 5%
19:00 +42°C° 0 mm 4 mps 684 mmHg 6%
20:00 +41°C° 0 mm 5 mps 685 mmHg 7%
21:00 +40°C° 0 mm 6 mps 685 mmHg 8%
22:00 +39°C° 0 mm 8 mps 685 mmHg 9%
23:00 +38°C° 0 mm 7 mps 685 mmHg 9%

Tomorrow, 4 July, Saturday

Time Temperature Precipitation Wind Pressure Humidity
00:00 +36°C° 0 mm 7 mps 684 mmHg 9%
01:00 +35°C° 0 mm 7 mps 684 mmHg 10%
02:00 +34°C° 0 mm 6 mps 684 mmHg 10%
03:00 +33°C° 0 mm 5 mps 684 mmHg 11%
04:00 +30°C° 0 mm 4 mps 684 mmHg 12%
05:00 +34°C° 0 mm 5 mps 685 mmHg 10%
06:00 +36°C° 0 mm 6 mps 686 mmHg 9%
07:00 +39°C° 0 mm 7 mps 686 mmHg 7%
08:00 +41°C° 0 mm 7 mps 687 mmHg 6%
09:00 +44°C° 0 mm 7 mps 687 mmHg 5%
10:00 +47°C° 0 mm 7 mps 687 mmHg 4%
11:00 +49°C° 0 mm 7 mps 686 mmHg 4%
12:00 +50°C° 0 mm 8 mps 686 mmHg 4%
13:00 +51°C° 0 mm 9 mps 686 mmHg 4%
14:00 +50°C° 0 mm 10 mps 685 mmHg 4%
15:00 +50°C° 0 mm 10 mps 684 mmHg 4%
16:00 +49°C° 0 mm 11 mps 684 mmHg 4%
17:00 +47°C° 0 mm 10 mps 683 mmHg 5%
18:00 +44°C° 0 mm 9 mps 683 mmHg 6%
19:00 +41°C° 0 mm 8 mps 683 mmHg 6%
20:00 +39°C° 0 mm 6 mps 683 mmHg 8%
21:00 +35°C° 0 mm 4 mps 683 mmHg 9%
22:00 +31°C° 0 mm 2 mps 682 mmHg 10%
23:00 +30°C° 0 mm 2 mps 682 mmHg 11%

Day after tomorrow, 5 July, Sunday

Time Temperature Precipitation Wind Pressure Humidity
00:00 +29°C° 0 mm 2 mps 682 mmHg 11%
01:00 +28°C° 0 mm 2 mps 682 mmHg 12%
02:00 +27°C° 0 mm 3 mps 682 mmHg 13%
03:00 +26°C° 0 mm 3 mps 682 mmHg 13%
04:00 +25°C° 0 mm 3 mps 682 mmHg 14%
05:00 +26°C° 0 mm 3 mps 682 mmHg 13%
06:00 +27°C° 0 mm 3 mps 683 mmHg 12%
07:00 +28°C° 0 mm 4 mps 684 mmHg 12%
08:00 +30°C° 0 mm 3 mps 684 mmHg 10%
09:00 +34°C° 0 mm 3 mps 684 mmHg 9%
10:00 +36°C° 0 mm 3 mps 685 mmHg 8%
11:00 +38°C° 0 mm 3 mps 684 mmHg 7%
12:00 +39°C° 0 mm 2 mps 684 mmHg 7%
13:00 +41°C° 0 mm 1 mps 684 mmHg 6%
14:00 +41°C° 0 mm 1 mps 683 mmHg 6%
15:00 +42°C° 0 mm 2 mps 683 mmHg 6%
16:00 +43°C° 0 mm 2 mps 682 mmHg 5%
17:00 +40°C° 0 mm 2 mps 682 mmHg 6%
18:00 +37°C° 0 mm 2 mps 682 mmHg 7%
19:00 +35°C° 0 mm 2 mps 681 mmHg 8%
20:00 +34°C° 0 mm 2 mps 681 mmHg 8%
21:00 +31°C° 0 mm 2 mps 681 mmHg 8%
22:00 +30°C° 0 mm 2 mps 681 mmHg 8%
23:00 +30°C° 0 mm 2 mps 681 mmHg 9%

6 July, Monday

Time Temperature Precipitation Wind Pressure Humidity
00:00 +29°C° 0 mm 2 mps 681 mmHg 9%
01:00 +28°C° 0 mm 2 mps 681 mmHg 10%
02:00 +27°C° 0 mm 2 mps 681 mmHg 14%
03:00 +25°C° 0 mm 3 mps 681 mmHg 17%
04:00 +23°C° 0 mm 4 mps 681 mmHg 21%
05:00 +25°C° 0 mm 3 mps 682 mmHg 20%
06:00 +27°C° 0 mm 3 mps 683 mmHg 20%
07:00 +28°C° 0 mm 3 mps 684 mmHg 19%
08:00 +30°C° 0 mm 3 mps 684 mmHg 16%
09:00 +34°C° 0 mm 3 mps 684 mmHg 13%
10:00 +37°C° 0 mm 2 mps 685 mmHg 11%
11:00 +38°C° 0 mm 2 mps 684 mmHg 9%
12:00 +40°C° 0 mm 2 mps 684 mmHg 7%
13:00 +42°C° 0 mm 2 mps 684 mmHg 5%
14:00 +43°C° 0 mm 2 mps 684 mmHg 5%
15:00 +43°C° 0 mm 2 mps 683 mmHg 5%
16:00 +43°C° 0 mm 2 mps 682 mmHg 4%
17:00 +42°C° 0 mm 3 mps 682 mmHg 5%
18:00 +39°C° 0 mm 3 mps 682 mmHg 6%
19:00 +36°C° 0 mm 3 mps 682 mmHg 7%
20:00 +35°C° 0 mm 3 mps 682 mmHg 7%
21:00 +34°C° 0 mm 3 mps 683 mmHg 8%
22:00 +31°C° 0 mm 2 mps 683 mmHg 9%
23:00 +31°C° 0 mm 3 mps 683 mmHg 11%

7 July, Tuesday

Time Temperature Precipitation Wind Pressure Humidity
00:00 +30°C° 0 mm 3 mps 683 mmHg 14%
01:00 +29°C° 0 mm 4 mps 683 mmHg 16%
02:00 +28°C° 0 mm 3 mps 683 mmHg 21%
03:00 +27°C° 0 mm 3 mps 683 mmHg 25%
04:00 +27°C° 0 mm 3 mps 683 mmHg 30%
05:00 +28°C° 0 mm 3 mps 684 mmHg 26%
06:00 +30°C° 0 mm 4 mps 685 mmHg 23%
07:00 +32°C° 0 mm 5 mps 686 mmHg 20%
08:00 +34°C° 0 mm 5 mps 686 mmHg 17%
09:00 +36°C° 0 mm 5 mps 686 mmHg 14%
10:00 +38°C° 0 mm 4 mps 687 mmHg 11%
11:00 +41°C° 0 mm 5 mps 686 mmHg 9%
12:00 +43°C° 0 mm 5 mps 686 mmHg 7%
13:00 +45°C° 0 mm 5 mps 686 mmHg 6%
14:00 +46°C° 0 mm 5 mps 686 mmHg 6%
15:00 +46°C° 0 mm 5 mps 685 mmHg 5%
16:00 +46°C° 0 mm 5 mps 685 mmHg 5%
17:00 +43°C° 0 mm 5 mps 685 mmHg 6%
18:00 +41°C° 0 mm 4 mps 684 mmHg 7%
19:00 +38°C° 0 mm 4 mps 684 mmHg 7%
20:00 +36°C° 0 mm 4 mps 684 mmHg 9%
21:00 +35°C° 0 mm 4 mps 684 mmHg 10%
22:00 +33°C° 0 mm 4 mps 685 mmHg 11%
23:00 +31°C° 0 mm 3 mps 684 mmHg 13%

8 July, Wednesday

Time Temperature Precipitation Wind Pressure Humidity
00:00 +30°C° 0 mm 3 mps 684 mmHg 15%
01:00 +28°C° 0 mm 2 mps 684 mmHg 16%
02:00 +28°C° 0 mm 3 mps 684 mmHg 17%
03:00 +27°C° 0 mm 3 mps 684 mmHg 18%
04:00 +27°C° 0 mm 4 mps 684 mmHg 18%
05:00 +28°C° 0 mm 4 mps 685 mmHg 17%
06:00 +29°C° 0 mm 4 mps 685 mmHg 16%
07:00 +30°C° 0 mm 5 mps 686 mmHg 15%
08:00 +34°C° 0 mm 5 mps 686 mmHg 13%
09:00 +36°C° 0 mm 5 mps 687 mmHg 11%
10:00 +40°C° 0 mm 5 mps 687 mmHg 9%
11:00 +41°C° 0 mm 6 mps 687 mmHg 8%
12:00 +44°C° 0 mm 6 mps 686 mmHg 6%
13:00 +46°C° 0 mm 6 mps 686 mmHg 5%
14:00 +46°C° 0 mm 6 mps 686 mmHg 5%
15:00 +46°C° 0 mm 7 mps 685 mmHg 5%
16:00 +46°C° 0 mm 7 mps 685 mmHg 5%
17:00 +44°C° 0 mm 6 mps 685 mmHg 6%
18:00 +41°C° 0 mm 6 mps 684 mmHg 7%
19:00 +39°C° 0 mm 5 mps 684 mmHg 8%
20:00 +36°C° 0 mm 5 mps 684 mmHg 10%
21:00 +35°C° 0 mm 5 mps 684 mmHg 12%
22:00 +33°C° 0 mm 5 mps 684 mmHg 13%
23:00 +32°C° 0 mm 5 mps 684 mmHg 15%
Show more